• En España
  • Lista de países
  • Para 7 días
  • Temperatura del agua
  • Mapa Satelital
  • El tiempo en el mapa
  • Informadores
  • user-avatar
    Iniciar sesión

    Tiempo cada hora Elizavetino

    Hoy, 23 Octubre, Martes

    Tiempo Temperatura Precipitaciones Viento Presión Humedad
    00:00 +4°C° 0 mm 2 mps 741 mmHg 77%
    01:00 +4°C° 0 mm 2 mps 740 mmHg 78%
    02:00 +3°C° 0 mm 2 mps 740 mmHg 79%
    03:00 +3°C° 0 mm 2 mps 739 mmHg 80%
    04:00 +3°C° 0 mm 2 mps 738 mmHg 81%
    05:00 +1°C° 0 mm 3 mps 738 mmHg 82%
    06:00 +1°C° 0 mm 3 mps 737 mmHg 83%
    07:00 +2°C° 0 mm 3 mps 737 mmHg 81%
    08:00 +1°C° 0 mm 4 mps 736 mmHg 79%
    09:00 +3°C° 0 mm 4 mps 736 mmHg 77%
    10:00 +3°C° 0 mm 5 mps 736 mmHg 73%
    11:00 +5°C° 0 mm 5 mps 735 mmHg 70%
    12:00 +6°C° 0 mm 5 mps 735 mmHg 66%
    13:00 +6°C° 0 mm 5 mps 734 mmHg 66%
    14:00 +7°C° 0 mm 5 mps 734 mmHg 66%
    15:00 +7°C° 0 mm 5 mps 733 mmHg 66%
    16:00 +6°C° 0 mm 5 mps 732 mmHg 70%
    17:00 +6°C° 0 mm 5 mps 732 mmHg 73%
    18:00 +5°C° 0 mm 4 mps 731 mmHg 77%
    19:00 +5°C° 0.1 mm 4 mps 731 mmHg 79%
    20:00 +5°C° 0.1 mm 4 mps 730 mmHg 80%
    21:00 +5°C° 0.1 mm 4 mps 730 mmHg 82%
    22:00 +5°C° 0 mm 4 mps 729 mmHg 82%
    23:00 +4°C° 0 mm 4 mps 728 mmHg 83%

    Mañana, 24 Octubre, Miércoles

    Tiempo Temperatura Precipitaciones Viento Presión Humedad
    00:00 +4°C° 0 mm 4 mps 728 mmHg 83%
    01:00 +3°C° 0.1 mm 5 mps 727 mmHg 81%
    02:00 +3°C° 0.1 mm 5 mps 726 mmHg 79%
    03:00 +3°C° 0.1 mm 5 mps 725 mmHg 77%
    04:00 +3°C° 0.1 mm 5 mps 724 mmHg 77%
    05:00 +3°C° 0.1 mm 5 mps 723 mmHg 78%
    06:00 +3°C° 0.1 mm 5 mps 723 mmHg 78%
    07:00 +3°C° 0.2 mm 6 mps 722 mmHg 78%
    08:00 +3°C° 0.2 mm 6 mps 721 mmHg 78%
    09:00 +4°C° 0.2 mm 7 mps 721 mmHg 78%
    10:00 +4°C° 0.5 mm 7 mps 720 mmHg 79%
    11:00 +4°C° 0.5 mm 7 mps 719 mmHg 80%
    12:00 +5°C° 0.5 mm 8 mps 719 mmHg 81%
    13:00 +5°C° 0.5 mm 7 mps 719 mmHg 81%
    14:00 +5°C° 0.5 mm 7 mps 719 mmHg 80%
    15:00 +7°C° 0.5 mm 6 mps 718 mmHg 80%
    16:00 +6°C° 0.2 mm 5 mps 718 mmHg 82%
    17:00 +6°C° 0.2 mm 5 mps 718 mmHg 85%
    18:00 +6°C° 0.2 mm 4 mps 718 mmHg 87%
    19:00 +6°C° 0.7 mm 4 mps 718 mmHg 89%
    20:00 +5°C° 0.7 mm 3 mps 718 mmHg 91%
    21:00 +5°C° 0.7 mm 3 mps 718 mmHg 92%
    22:00 +5°C° 0.6 mm 3 mps 718 mmHg 93%
    23:00 +6°C° 0.6 mm 2 mps 717 mmHg 94%

    Pasado mañana, 25 Octubre, Jueves

    Tiempo Temperatura Precipitaciones Viento Presión Humedad
    00:00 +6°C° 0.6 mm 2 mps 717 mmHg 95%
    01:00 +5°C° 1.5 mm 3 mps 716 mmHg 95%
    02:00 +5°C° 1.5 mm 3 mps 716 mmHg 95%
    03:00 +5°C° 1.5 mm 4 mps 715 mmHg 95%
    04:00 +5°C° 3.1 mm 5 mps 714 mmHg 94%
    05:00 +5°C° 3.1 mm 5 mps 714 mmHg 93%
    06:00 +5°C° 3.1 mm 6 mps 713 mmHg 91%
    07:00 +4°C° 0.7 mm 6 mps 713 mmHg 90%
    08:00 +4°C° 0.7 mm 6 mps 712 mmHg 88%
    09:00 +4°C° 0.7 mm 6 mps 712 mmHg 86%
    10:00 +4°C° 0.9 mm 7 mps 712 mmHg 85%
    11:00 +2°C° 0.9 mm 8 mps 712 mmHg 85%
    12:00 +2°C° 0.9 mm 9 mps 712 mmHg 84%
    13:00 +2°C° 0.9 mm 9 mps 713 mmHg 82%
    14:00 +2°C° 0.9 mm 10 mps 714 mmHg 80%
    15:00 +1°C° 0.9 mm 10 mps 715 mmHg 78%
    16:00 +1°C° 0.2 mm 10 mps 716 mmHg 78%
    17:00 +1°C° 0.2 mm 9 mps 717 mmHg 77%
    18:00 0°C° 0.2 mm 8 mps 718 mmHg 76%
    19:00 0°C° 0 mm 8 mps 719 mmHg 76%
    20:00 0°C° 0 mm 7 mps 720 mmHg 75%
    21:00 0°C° 0 mm 7 mps 721 mmHg 75%
    22:00 +1°C° 0 mm 6 mps 721 mmHg 75%
    23:00 +1°C° 0 mm 6 mps 722 mmHg 76%

    26 Octubre, Viernes

    Tiempo Temperatura Precipitaciones Viento Presión Humedad
    00:00 -1°C° 0 mm 6 mps 723 mmHg 76%
    01:00 -1°C° 0 mm 6 mps 723 mmHg 76%
    02:00 -1°C° 0 mm 6 mps 723 mmHg 76%
    03:00 -1°C° 0 mm 6 mps 724 mmHg 76%
    04:00 -1°C° 0 mm 6 mps 724 mmHg 78%
    05:00 -1°C° 0 mm 6 mps 725 mmHg 79%
    06:00 -1°C° 0 mm 6 mps 726 mmHg 81%
    07:00 -1°C° 0 mm 6 mps 726 mmHg 81%
    08:00 -1°C° 0 mm 6 mps 727 mmHg 81%
    09:00 -1°C° 0 mm 6 mps 728 mmHg 81%
    10:00 -1°C° 0 mm 6 mps 728 mmHg 80%
    11:00 +1°C° 0 mm 6 mps 729 mmHg 78%
    12:00 +1°C° 0 mm 5 mps 729 mmHg 77%
    13:00 +1°C° 0 mm 5 mps 730 mmHg 75%
    14:00 +2°C° 0 mm 5 mps 730 mmHg 73%
    15:00 +2°C° 0 mm 5 mps 730 mmHg 70%
    16:00 +2°C° 0.1 mm 5 mps 731 mmHg 73%
    17:00 +3°C° 0.1 mm 4 mps 731 mmHg 76%
    18:00 +3°C° 0.1 mm 4 mps 732 mmHg 79%
    19:00 +1°C° 0.2 mm 4 mps 732 mmHg 81%
    20:00 +1°C° 0.2 mm 4 mps 733 mmHg 82%
    21:00 +1°C° 0.2 mm 4 mps 733 mmHg 84%
    22:00 +1°C° 0 mm 4 mps 733 mmHg 84%
    23:00 +1°C° 0 mm 4 mps 734 mmHg 84%

    27 Octubre, Sábado

    Tiempo Temperatura Precipitaciones Viento Presión Humedad
    00:00 0°C° 0 mm 4 mps 735 mmHg 83%
    01:00 0°C° 0 mm 4 mps 735 mmHg 84%
    02:00 0°C° 0 mm 4 mps 736 mmHg 85%
    03:00 0°C° 0 mm 4 mps 736 mmHg 86%
    04:00 -1°C° 0 mm 4 mps 737 mmHg 88%
    05:00 -1°C° 0 mm 4 mps 737 mmHg 90%
    06:00 -1°C° 0 mm 4 mps 737 mmHg 92%
    07:00 -1°C° 0 mm 4 mps 738 mmHg 91%
    08:00 -1°C° 0 mm 4 mps 738 mmHg 90%
    09:00 0°C° 0 mm 4 mps 739 mmHg 89%
    10:00 +1°C° 0 mm 4 mps 739 mmHg 85%
    11:00 +2°C° 0 mm 5 mps 739 mmHg 81%
    12:00 +3°C° 0 mm 5 mps 739 mmHg 76%
    13:00 +5°C° 0 mm 5 mps 739 mmHg 76%
    14:00 +5°C° 0 mm 5 mps 739 mmHg 75%
    15:00 +5°C° 0 mm 6 mps 739 mmHg 74%
    16:00 +5°C° 0 mm 5 mps 739 mmHg 76%
    17:00 +5°C° 0 mm 5 mps 739 mmHg 78%
    18:00 +5°C° 0 mm 5 mps 739 mmHg 80%
    19:00 +5°C° 0 mm 5 mps 738 mmHg 80%
    20:00 +4°C° 0 mm 6 mps 738 mmHg 81%
    21:00 +4°C° 0 mm 6 mps 738 mmHg 81%
    22:00 +4°C° 0 mm 6 mps 737 mmHg 83%
    23:00 +4°C° 0 mm 6 mps 737 mmHg 85%

    28 Octubre, Domingo

    Tiempo Temperatura Precipitaciones Viento Presión Humedad
    00:00 +4°C° 0 mm 6 mps 737 mmHg 87%
    01:00 +4°C° 0.3 mm 6 mps 737 mmHg 89%
    02:00 +5°C° 0.3 mm 6 mps 736 mmHg 90%
    03:00 +7°C° 0.3 mm 6 mps 736 mmHg 92%
    04:00 +7°C° 0.1 mm 6 mps 736 mmHg 92%
    05:00 +8°C° 0.1 mm 6 mps 735 mmHg 92%
    06:00 +8°C° 0.1 mm 6 mps 735 mmHg 92%
    07:00 +9°C° 0.1 mm 7 mps 735 mmHg 92%
    08:00 +9°C° 0.1 mm 7 mps 735 mmHg 91%
    09:00 +9°C° 0.1 mm 7 mps 735 mmHg 91%
    10:00 +10°C° 0 mm 8 mps 735 mmHg 89%
    11:00 +10°C° 0 mm 8 mps 735 mmHg 87%
    12:00 +10°C° 0 mm 8 mps 735 mmHg 85%
    13:00 +11°C° 0 mm 8 mps 735 mmHg 83%
    14:00 +11°C° 0 mm 8 mps 735 mmHg 80%
    15:00 +12°C° 0 mm 8 mps 735 mmHg 78%
    16:00 +11°C° 0 mm 8 mps 735 mmHg 78%
    17:00 +11°C° 0 mm 7 mps 735 mmHg 78%
    18:00 +11°C° 0 mm 7 mps 734 mmHg 79%
    19:00 +11°C° 0 mm 7 mps 734 mmHg 78%
    20:00 +11°C° 0 mm 7 mps 734 mmHg 78%
    21:00 +11°C° 0 mm 7 mps 734 mmHg 77%
    22:00 +12°C° 0.1 mm 7 mps 734 mmHg 79%
    23:00 +12°C° 0.1 mm 7 mps 735 mmHg 80%

    29 Octubre, Lunes

    Tiempo Temperatura Precipitaciones Viento Presión Humedad
    00:00 +12°C° 0.1 mm 7 mps 735 mmHg 81%
    01:00 +12°C° 0.3 mm 7 mps 735 mmHg 84%
    02:00 +12°C° 0.3 mm 7 mps 735 mmHg 86%
    03:00 +13°C° 0.3 mm 6 mps 735 mmHg 88%
    04:00 +11°C° 0 mm 6 mps 736 mmHg 89%
    05:00 +11°C° 0 mm 6 mps 736 mmHg 89%
    06:00 +11°C° 0 mm 6 mps 737 mmHg 89%
    07:00 +10°C° 0 mm 6 mps 738 mmHg 86%
    08:00 +9°C° 0 mm 6 mps 739 mmHg 83%
    09:00 +8°C° 0 mm 6 mps 740 mmHg 80%
    10:00 +8°C° 0 mm 5 mps 741 mmHg 76%
    11:00 +8°C° 0 mm 5 mps 741 mmHg 72%
    12:00 +7°C° 0 mm 4 mps 742 mmHg 69%
    13:00 +8°C° 0 mm 4 mps 743 mmHg 67%
    14:00 +9°C° 0 mm 3 mps 743 mmHg 66%
    15:00 +9°C° 0 mm 3 mps 744 mmHg 64%
    16:00 +8°C° 0 mm 2 mps 744 mmHg 67%
    17:00 +9°C° 0 mm 1 mps 744 mmHg 70%
    18:00 +9°C° 0 mm 1 mps 745 mmHg 72%
    19:00 +9°C° 0.1 mm 1 mps 745 mmHg 74%
    20:00 +7°C° 0.1 mm 0 mps 745 mmHg 75%
    21:00 +7°C° 0.1 mm 0 mps 746 mmHg 77%
    22:00 +8°C° 0.1 mm 1 mps 746 mmHg 78%
    23:00 +8°C° 0.1 mm 1 mps 746 mmHg 79%
    Mostrar más